{"data":{"norad_id":59954,"epoch":"2026-09-21T12:13:45.511392Z","epoch_age_seconds":90490,"freshness":"FRESH","line1":"1 59954U 24107K   26264.50955453 -.00002106  00000+0 -12537-4 0  9994","line2":"2 59954  53.1600   5.8014 0001002  71.2008 288.9119 15.69695889132907","mean_motion":15.69695889,"eccentricity":0.0001002,"inclination_deg":53.16,"raan_deg":5.8014,"arg_perigee_deg":71.2008,"mean_anomaly_deg":288.9119,"bstar":-1.2537e-5,"rev_number":13290,"period_min":91.737514896428,"perigee_km":359.09199300895,"apogee_km":360.44226899681,"semimajor_km":6737.9041310029,"source":"CELESTRAK","updated_at":"2026-09-22T09:00:49.116949Z"}}